Powrót do katalogu

SL-8 DEB

AktywnyLEO
NORAD 5052·DEBRIS·🇷🇺 Russia

Wystrzelony Mar 18, 1971 z Plesetsk Cosmodrome

Loading…

Następne Przeloty (najbliższe 24 godziny)

TLE

ŚwieżeSource: Space-Track

Epoka: Sep 14, 2026, 13:01 UTC

1 05052U 71020C   26257.54289649 -.00000051  00000-0  31214-4 0  9993
2 05052  65.8188 271.0556 0005953 244.8575 196.8769 13.73653886781487

Śledź SL-8 DEB w czasie rzeczywistym z AllMySat

Download on the App Store